1512198001.01,39586,4.38,72944.0,-13.95,-45.41,-45.73,0,*6E
1512198002.25,39587,4.38,72940.0,-13.95,-45.53,-45.61,0,*6F
1512198003.47,39588,4.44,72942.8,-13.93,-45.33,-45.53,0,*61
1512198004.74,39589,4.38,72938.3,-13.93,-45.07,-45.27,0,*64
1512198005.98,39590,4.44,72940.3,-13.93,-45.13,-45.47,0,*6F
1512198007.21,39591,4.44,72942.0,-13.93,-45.47,-45.67,0,*6D
1512198008.45,39592,4.38,72944.0,-13.93,-45.67,-45.73,0,*69
1512198009.7,39593,4.38,72942.3,-13.91,-45.53,-45.67,0,*68
1512198010.94,39594,4.38,72942.5,-13.93,-45.27,-45.67,0,*6E
1512198012.19,39595,4.38,72942.3,-13.91,-45.53,-45.67,0,*6E
1512198013.45,39596,4.38,72942.0,-13.91,-45.67,-45.73,0,*6F
1512198014.74,39597,4.44,72942.5,-13.91,-45.73,-45.73,0,*6B
1512198015.98,39598,4.38,72938.3,-13.91,-45.87,-45.95,0,*67
1512198017.19,39599,4.38,72936.5,-13.93,-45.87,-45.95,0,*64
1512198018.4,39600,4.38,72938.8,-13.93,-45.87,-45.87,0,*64
1512198019.66,39601,4.38,72938.5,-13.91,-46.01,-46.01,0,*67
1512198020.87,39602,4.38,72944.0,-13.93,-45.87,-45.95,0,*65
1512198022.08,39603,4.38,72940.5,-13.93,-45.87,-45.87,0,*67
1512198023.31,39604,4.38,72946.3,-13.93,-46.01,-46.01,0,*60
1512198024.58,39605,4.38,72944.8,-13.91,-45.53,-45.73,0,*61
1512198025.82,39606,4.38,72946.0,-13.91,-45.33,-45.53,0,*66
1512198027.02,39607,4.38,72942.3,-13.93,-45.33,-45.67,0,*62
1512198028.26,39608,4.38,72936.8,-13.91,-45.33,-45.67,0,*6F
1512198029.5,39609,4.38,72936.5,-13.91,-45.53,-45.67,0,*68
1512198030.76,39610,4.38,72934.5,-13.91,-45.73,-45.87,0,*6C
1512198032.01,39611,4.38,72940.8,-13.91,-45.95,-45.95,0,*66
1512198033.25,39612,4.38,72942.3,-13.91,-45.95,-45.95,0,*65
1512198034.47,39613,4.38,72942.8,-13.93,-45.87,-46.01,0,*6B
1512198035.7,39614,4.44,72940.0,-13.93,-45.73,-45.87,0,*6A
1512198036.96,39615,4.44,72934.5,-13.91,-45.73,-45.87,0,*69
1512198038.21,39616,4.38,72928.8,-13.91,-45.95,-45.95,0,*61
1512198039.45,39617,4.38,72928.5,-13.91,-45.87,-46.01,0,*6D
1512198040.73,39618,4.44,72934.8,-13.91,-45.95,-46.15,0,*64
1512198041.97,39619,4.44,72942.5,-13.93,-45.95,-46.15,0,*67
1512198043.22,39620,4.44,72942.8,-13.91,-45.87,-46.01,0,*69
1512198044.43,39621,4.44,72942.3,-13.93,-45.87,-45.95,0,*64
1512198045.67,39622,4.44,72944.5,-13.93,-45.73,-45.87,0,*6F
1512198046.91,39623,4.44,72944.5,-13.91,-45.87,-46.01,0,*6A
1512198048.16,39624,4.38,72942.8,-13.91,-45.95,-46.01,0,*6E
1512198049.39,39625,4.44,72942.3,-13.93,-45.95,-46.01,0,*6D
1512198050.66,39626,4.44,72936.8,-13.91,-45.95,-46.15,0,*69
1512198051.93,39627,4.38,72934.0,-13.91,-45.95,-46.15,0,*68
1512198053.17,39628,4.44,72940.8,-13.91,-45.87,-45.95,0,*6F
1512198054.39,39629,4.38,72940.0,-13.93,-45.87,-46.01,0,*62
1512198055.61,39630,4.38,72942.3,-13.93,-45.95,-46.01,0,*69
1512198056.84,39631,4.38,72936.0,-13.93,-45.95,-46.01,0,*68
1512198058.06,39632,4.44,72942.8,-13.93,-45.87,-46.01,0,*68
1512198059.28,39633,4.38,72938.3,-13.93,-46.01,-45.95,0,*6A
1512198060.5,39634,4.38,72940.3,-13.93,-45.95,-46.01,0,*6D
1512198061.78,39635,4.44,72944.8,-13.91,-46.01,-46.15,0,*65
1512198062.99,39636,4.44,72946.5,-13.93,-45.95,-45.95,0,*61
1512198064.24,39637,4.44,72942.0,-13.93,-45.87,-46.15,0,*68
1512198065.48,39638,4.38,72942.8,-13.93,-45.95,-46.15,0,*64
1512198066.7,39639,4.44,72938.5,-13.93,-45.95,-46.21,0,*62
1512198067.92,39640,4.44,72942.3,-13.93,-45.95,-46.01,0,*6E
1512198069.14,39641,4.44,72942.0,-13.93,-45.95,-46.01,0,*6F
1512198070.37,39642,4.44,72942.0,-13.93,-45.95,-46.01,0,*6C
1512198071.58,39643,4.44,72942.0,-13.93,-45.87,-45.95,0,*60
1512198072.84,39644,4.44,72942.3,-13.93,-45.73,-45.73,0,*64
1512198074.07,39645,4.38,72938.0,-13.93,-45.73,-45.95,0,*6D
1512198075.29,39646,4.38,72938.3,-13.93,-45.67,-45.95,0,*6B
1512198076.52,39647,4.38,72936.5,-13.93,-45.73,-45.87,0,*6C
1512198077.76,39648,4.38,72942.8,-13.93,-45.73,-45.87,0,*63
1512198079.03,39649,4.38,72944.8,-13.91,-46.01,-46.15,0,*6E
1512198080.26,39650,4.44,72944.8,-13.93,-45.95,-46.01,0,*6F
1512198081.48,39651,4.44,72948.0,-13.93,-45.95,-46.01,0,*6E
1512198082.7,39652,4.44,72946.8,-13.93,-45.87,-46.01,0,*6E
1512198083.91,39653,4.44,72948.3,-13.93,-45.95,-45.95,0,*62
1512198085.13,39654,4.38,72942.5,-13.93,-45.87,-46.01,0,*68
1512198086.35,39655,4.38,72944.3,-13.93,-45.87,-45.95,0,*67
1512198087.58,39656,4.44,72948.3,-13.93,-45.73,-45.87,0,*6C
1512198088.8,39657,4.44,72946.3,-13.93,-45.95,-46.01,0,*68
1512198090.02,39658,4.44,72948.5,-13.93,-45.87,-45.95,0,*6A
1512198091.23,39659,4.44,72942.8,-13.93,-45.95,-45.95,0,*68
1512198092.45,39660,4.38,72940.5,-13.93,-45.67,-45.95,0,*6F
1512198093.68,39661,4.38,72940.5,-13.93,-45.73,-45.95,0,*6B
1512198094.92,39662,4.44,72946.0,-13.91,-45.87,-45.95,0,*61
1512198096.14,39663,4.44,72950.3,-13.93,-45.87,-46.01,0,*6C
1512198097.36,39664,4.44,72946.5,-13.93,-45.95,-46.01,0,*68
1512198098.59,39665,4.38,72942.8,-13.93,-45.95,-46.01,0,*69
1512198099.8,39666,4.44,72942.5,-13.93,-45.67,-45.87,0,*6A
1512198101.01,39667,4.44,72944.3,-13.93,-45.87,-45.95,0,*66
1512198102.23,39668,4.38,72942.0,-13.93,-45.87,-46.01,0,*67
1512198103.45,39669,4.38,72946.5,-13.93,-45.87,-46.01,0,*66
1512198104.7,39670,4.38,72944.8,-13.93,-45.95,-46.15,0,*68
1512198105.92,39671,4.44,72950.5,-13.93,-45.95,-46.01,0,*6C
1512198107.16,39672,4.44,72944.8,-13.93,-45.73,-45.87,0,*6A
1512198108.39,39673,4.44,72944.8,-13.93,-45.73,-45.87,0,*6B
1512198109.63,39674,4.44,72944.8,-13.93,-45.73,-45.87,0,*6C
1512198110.84,39675,4.38,72940.8,-13.93,-45.95,-45.95,0,*66
1512198112.06,39676,4.44,72940.5,-13.93,-45.87,-45.95,0,*66
1512198113.28,39677,4.44,72946.8,-13.93,-45.95,-46.01,0,*6A
1512198114.52,39678,4.44,72946.8,-13.91,-45.87,-45.95,0,*6A
1512198115.77,39679,4.38,72940.8,-13.91,-45.87,-46.01,0,*65
1512198116.98,39680,4.38,72942.3,-13.93,-45.87,-45.95,0,*6F
1512198118.19,39681,4.44,72942.5,-13.93,-45.87,-45.95,0,*6E
1512198119.4,39682,4.44,72940.0,-13.93,-45.87,-45.95,0,*6D
1512198120.62,39683,4.44,72942.5,-13.93,-45.87,-45.95,0,*6C
1512198121.83,39684,4.44,72942.0,-13.93,-45.87,-45.87,0,*68
1512198123.04,39685,4.44,72940.5,-13.93,-45.87,-45.95,0,*6A
1512198124.26,39686,4.38,72940.8,-13.93,-45.87,-46.01,0,*67
1512198125.48,39687,4.38,72940.3,-13.93,-45.53,-45.87,0,*62
1512198126.72,39688,4.44,72944.0,-13.93,-45.73,-45.95,0,*6C
1512198127.95,39689,4.44,72944.0,-13.93,-45.73,-45.95,0,*6D
1512198129.19,39690,4.44,72944.5,-13.91,-45.95,-45.95,0,*6F
1512198130.41,39691,4.44,72940.5,-13.93,-45.87,-45.95,0,*6F
1512198131.62,39692,4.44,72944.5,-13.93,-45.67,-45.87,0,*61
1512198132.86,39693,4.38,72936.8,-13.93,-45.73,-45.87,0,*65
1512198134.07,39694,4.38,72938.5,-13.93,-45.87,-45.87,0,*69
1512198135.28,39695,4.44,72940.5,-13.93,-45.67,-45.87,0,*66
1512198136.53,39696,4.44,72942.0,-13.93,-45.53,-45.73,0,*69
1512198137.76,39697,4.44,72938.0,-13.93,-45.73,-45.95,0,*62
1512198139.0,39698,4.44,72936.3,-13.91,-45.87,-45.95,0,*64
1512198140.24,39699,4.38,72938.0,-13.93,-45.73,-45.87,0,*6F
1512198141.5,39700,4.44,72936.0,-13.91,-45.73,-45.87,0,*6C
1512198142.71,39701,4.38,72936.0,-13.93,-45.87,-45.87,0,*64
1512198143.97,39702,4.38,72942.8,-13.91,-45.73,-45.95,0,*6D
1512198145.21,39703,4.44,72942.5,-13.91,-45.87,-45.95,0,*67
1512198146.45,39704,4.44,72946.8,-13.93,-45.67,-45.73,0,*64
1512198147.69,39705,4.44,72950.8,-13.91,-45.87,-45.95,0,*61
1512198148.9,39706,4.44,72948.3,-13.93,-45.67,-45.87,0,*6D
1512198150.14,39707,4.38,72940.3,-13.91,-45.87,-45.87,0,*60
1512198151.4,39708,4.44,72940.3,-13.91,-45.73,-45.95,0,*67
1512198152.65,39709,4.44,72942.3,-13.91,-45.87,-46.01,0,*63
1512198153.9,39710,4.44,72946.3,-13.91,-45.87,-46.01,0,*6B
1512198155.14,39711,4.44,72946.0,-13.91,-45.53,-45.67,0,*60
1512198156.38,39712,4.38,72944.5,-13.91,-45.67,-45.87,0,*6A
1512198157.64,39713,4.44,72944.8,-13.91,-45.73,-45.87,0,*6E
1512198158.87,39714,4.38,72940.0,-13.93,-45.87,-46.01,0,*6D
1512198160.13,39715,4.44,72942.3,-13.91,-45.73,-45.95,0,*6B
1512198161.37,39716,4.44,72944.8,-13.91,-45.67,-45.95,0,*6D
1512198162.63,39717,4.44,72946.3,-13.91,-45.73,-45.95,0,*69
1512198163.89,39718,4.44,72946.3,-13.91,-45.73,-45.95,0,*66
1512198165.13,39719,4.44,72944.5,-13.93,-45.73,-45.87,0,*66
1512198166.38,39720,4.38,72942.3,-13.91,-46.01,-46.01,0,*65
1512198167.63,39721,4.44,72940.0,-13.91,-46.01,-46.21,0,*66
1512198168.88,39722,4.44,72946.3,-13.91,-45.95,-46.01,0,*69
1512198170.1,39723,4.44,72944.8,-13.89,-45.87,-46.01,0,*62
1512198171.34,39724,4.44,72944.5,-13.93,-45.73,-45.87,0,*68
1512198172.59,39725,4.38,72942.3,-13.91,-45.95,-46.01,0,*6E
1512198173.81,39726,4.44,72942.5,-13.93,-46.01,-46.21,0,*63
1512198175.03,39727,4.44,72942.8,-13.93,-45.95,-46.01,0,*6E
1512198176.26,39728,4.44,72944.5,-13.93,-46.01,-46.01,0,*6F
1512198177.53,39729,4.44,72946.0,-13.91,-46.01,-46.15,0,*69
1512198178.78,39730,4.44,72946.3,-13.91,-45.95,-45.95,0,*64
1512198179.99,39731,4.44,72944.5,-13.93,-45.87,-45.95,0,*64
1512198181.24,39732,4.44,72948.8,-13.91,-45.95,-46.01,0,*68
1512198182.48,39733,4.44,72946.8,-13.91,-45.87,-45.95,0,*64
1512198183.74,39734,4.44,72946.8,-13.91,-45.67,-45.73,0,*65
1512198184.98,39735,4.44,72946.5,-13.93,-45.73,-45.87,0,*68
1512198186.19,39736,4.44,72946.8,-13.93,-45.87,-45.95,0,*63
1512198187.43,39737,4.44,72948.3,-13.91,-45.87,-45.87,0,*63
1512198188.66,39738,4.44,72946.8,-13.93,-45.73,-45.87,0,*65
1512198189.91,39739,4.44,72946.3,-13.91,-45.95,-46.01,0,*63
1512198191.18,39740,4.44,72948.0,-13.91,-45.95,-46.15,0,*68
1512198192.46,39741,4.44,72948.0,-13.91,-45.87,-46.15,0,*6A
1512198193.7,39742,4.44,72948.0,-13.91,-45.95,-45.95,0,*61
1512198194.94,39743,4.44,72950.5,-13.91,-45.67,-45.87,0,*6E
1512198196.18,39744,4.44,72946.5,-13.91,-45.87,-45.95,0,*64
1512198197.39,39745,4.44,72946.8,-13.93,-45.87,-45.95,0,*67
1512198198.66,39746,4.44,72948.3,-13.91,-45.95,-46.15,0,*6E
1512198199.89,39747,4.44,72944.5,-13.93,-45.95,-46.01,0,*68
1512198201.14,39748,4.44,72946.3,-13.91,-45.95,-46.01,0,*65
1512198202.36,39749,4.44,72944.0,-13.93,-45.95,-46.01,0,*66
1512198203.57,39750,4.44,72944.0,-13.93,-45.87,-45.95,0,*63
1512198204.79,39751,4.44,72948.0,-13.93,-45.67,-46.01,0,*62
1512198206.04,39752,4.44,72944.3,-13.91,-45.87,-46.01,0,*6D
1512198207.28,39753,4.44,72942.8,-13.91,-45.87,-45.95,0,*62
1512198208.54,39754,4.44,72940.8,-13.93,-45.73,-45.73,0,*64
1512198209.75,39755,4.44,72940.5,-13.93,-45.87,-45.87,0,*65
1512198210.97,39756,4.44,72944.5,-13.93,-45.87,-46.01,0,*6B
1512198212.21,39757,4.44,72946.0,-13.91,-45.67,-45.87,0,*6B
1512198213.47,39758,4.44,72946.0,-13.91,-45.73,-45.87,0,*61
1512198214.71,39759,4.44,72946.5,-13.91,-45.87,-45.95,0,*68
1512198215.95,39760,4.44,72940.0,-13.91,-45.87,-45.95,0,*62
1512198217.19,39761,4.44,72946.8,-13.91,-45.95,-45.95,0,*60
1512198218.41,39762,4.44,72950.3,-13.93,-45.87,-45.95,0,*62
1512198219.64,39763,4.44,72948.0,-13.93,-45.67,-45.73,0,*65
1512198220.88,39764,4.44,72946.0,-13.93,-45.67,-45.73,0,*62
1512198222.12,39765,4.44,72948.0,-13.91,-45.87,-45.95,0,*67
1512198223.33,39766,4.44,72946.3,-13.93,-45.95,-45.87,0,*66
1512198224.6,39767,4.44,72946.3,-13.91,-45.73,-46.01,0,*60
1512198225.84,39768,4.44,72948.0,-13.91,-45.87,-45.95,0,*6A
1512198227.08,39769,4.44,72948.8,-13.93,-45.73,-45.95,0,*62
1512198228.32,39770,4.44,72948.0,-13.91,-45.87,-45.95,0,*63
1512198229.56,39771,4.44,72946.8,-13.91,-45.67,-45.87,0,*6F
1512198230.77,39772,4.44,72948.3,-13.93,-45.87,-45.95,0,*63
1512198231.98,39773,4.44,72946.8,-13.93,-45.87,-45.95,0,*62
1512198233.2,39774,4.44,72948.8,-13.93,-45.87,-45.95,0,*65
1512198234.41,39775,4.44,72944.3,-13.93,-45.87,-45.95,0,*64
1512198235.62,39776,4.44,72944.5,-13.93,-45.87,-45.87,0,*64
1512198236.84,39777,4.44,72948.0,-13.93,-45.95,-46.01,0,*6B
1512198238.06,39778,4.44,72946.8,-13.93,-45.95,-46.21,0,*66
1512198239.32,39779,4.44,72944.8,-13.91,-46.01,-46.01,0,*69
1512198240.55,39780,4.44,72950.5,-13.91,-45.87,-45.95,0,*6C
1512198241.79,39781,4.44,72950.0,-13.93,-45.95,-45.73,0,*64
1512198243.01,39782,4.44,72950.8,-13.93,-45.87,-45.95,0,*6C
1512198244.28,39783,4.38,72944.0,-13.91,-45.53,-45.73,0,*6E
1512198245.51,39784,4.44,72946.3,-13.93,-45.73,-45.87,0,*62
1512198246.76,39785,4.44,72952.0,-13.93,-45.95,-46.15,0,*63
1512198248.0,39786,4.44,72948.0,-13.91,-45.95,-45.95,0,*69
1512198249.27,39787,4.44,72950.5,-13.91,-45.95,-46.15,0,*63
1512198250.52,39788,4.44,72946.0,-13.91,-46.01,-46.21,0,*65
1512198251.76,39789,4.44,72946.3,-13.93,-45.95,-46.15,0,*6F
1512198252.98,39790,4.44,72948.0,-13.93,-45.95,-45.87,0,*6F
1512198254.19,39791,4.44,72944.5,-13.93,-45.87,-45.95,0,*6E
1512198255.45,39792,4.44,72948.5,-13.91,-46.01,-46.01,0,*6C
1512198256.7,39793,4.44,72950.5,-13.91,-45.95,-46.01,0,*63
1512198257.98,39794,4.44,72948.3,-13.91,-45.73,-45.73,0,*6A
1512198259.24,39795,4.44,72946.3,-13.91,-45.73,-45.95,0,*63
1512198260.45,39796,4.44,72948.3,-13.93,-45.87,-45.95,0,*69
1512198261.67,39797,4.44,72944.5,-13.93,-45.67,-45.87,0,*65
1512198262.88,39798,4.44,72944.3,-13.93,-45.67,-45.87,0,*6A
1512198264.11,39799,4.44,72950.0,-13.93,-45.95,-46.01,0,*6B
1512198265.35,39800,4.38,72944.8,-13.91,-45.87,-46.01,0,*65
1512198266.57,39801,4.44,72948.3,-13.93,-45.87,-46.01,0,*66
1512198267.79,39802,4.44,72948.3,-13.93,-45.67,-45.87,0,*66
1512198269.05,39803,4.44,72948.0,-13.91,-45.73,-45.95,0,*63
1512198270.3,39804,4.44,72948.8,-13.91,-45.95,-46.01,0,*62
1512198271.55,39805,4.44,72948.8,-13.93,-46.01,-46.15,0,*6A
1512198272.83,39806,4.44,72950.0,-13.91,-46.01,-46.15,0,*6B
1512198274.04,39807,4.44,72948.3,-13.93,-45.87,-45.95,0,*6E
1512198275.26,39808,4.44,72948.0,-13.93,-46.01,-46.21,0,*60
1512198276.48,39809,4.44,72946.8,-13.93,-46.01,-46.21,0,*61
1512198277.69,39810,4.44,72948.5,-13.93,-45.95,-45.95,0,*6B
1512198278.91,39811,4.44,72948.5,-13.93,-45.95,-45.95,0,*6A
1512198280.13,39812,4.44,72948.5,-13.93,-45.95,-46.01,0,*67
1512198281.37,39813,4.44,72950.5,-13.91,-45.87,-45.95,0,*69
1512198282.58,39814,4.44,72944.3,-13.93,-45.87,-45.95,0,*6C
1512198283.8,39815,4.44,72944.5,-13.93,-45.95,-45.95,0,*6E
1512198285.03,39816,4.44,72948.5,-13.93,-45.73,-45.87,0,*66
1512198286.27,39817,4.44,72946.8,-13.93,-45.73,-45.87,0,*67
1512198287.48,39818,4.44,72950.3,-13.93,-45.87,-45.95,0,*60
1512198288.7,39819,4.44,72948.8,-13.93,-45.67,-45.87,0,*6C
1512198289.93,39820,4.44,72950.3,-13.93,-45.73,-45.95,0,*60
1512198291.14,39821,4.44,72948.8,-13.93,-45.87,-45.95,0,*6A
1512198292.38,39822,4.44,72950.0,-13.91,-45.87,-45.95,0,*6B
1512198293.62,39823,4.44,72952.5,-13.93,-45.73,-45.87,0,*60
1512198294.91,39824,4.44,72948.8,-13.95,-45.81,-46.07,0,*67
1512198296.12,39825,4.44,72948.3,-13.93,-45.87,-45.95,0,*6E
1512198297.34,39826,4.44,72946.8,-13.93,-45.87,-46.01,0,*63
1512198298.58,39827,4.44,72950.0,-13.93,-45.73,-45.87,0,*64
1512198299.82,39828,4.44,72946.3,-13.93,-45.67,-45.73,0,*65
1512198301.08,39829,4.44,72950.8,-13.91,-45.47,-45.67,0,*61
1512198302.34,39830,4.44,72946.3,-13.91,-45.67,-45.73,0,*6E
1512198303.58,39831,4.44,72944.5,-13.93,-45.73,-45.87,0,*63
1512198304.84,39832,4.44,72950.5,-13.93,-45.73,-45.73,0,*6B
1512198306.08,39833,4.44,72948.5,-13.91,-45.87,-45.95,0,*6B
1512198307.31,39834,4.44,72950.3,-13.93,-45.67,-45.73,0,*68
1512198308.55,39835,4.44,72948.0,-13.93,-45.73,-45.87,0,*67
1512198309.79,39836,4.44,72948.3,-13.91,-45.67,-45.87,0,*63
1512198311.05,39837,4.44,72948.5,-13.91,-45.73,-45.87,0,*67
1512198312.33,39838,4.44,72948.5,-13.91,-45.73,-45.73,0,*63
1512198313.62,39839,4.44,72950.8,-13.91,-45.47,-45.73,0,*65
1512198314.88,39840,4.44,72950.5,-13.91,-45.95,-46.01,0,*62
1512198316.12,39841,4.44,72948.3,-13.91,-45.95,-46.01,0,*63
1512198317.34,39842,4.44,72950.0,-13.93,-45.87,-45.95,0,*6F
1512198318.58,39843,4.44,72946.3,-13.91,-45.87,-45.95,0,*6C
1512198319.8,39844,4.44,72950.8,-13.93,-45.95,-46.01,0,*64
1512198321.02,39845,4.44,72946.8,-13.93,-46.01,-45.95,0,*65
1512198322.23,39846,4.44,72942.5,-13.93,-45.87,-45.95,0,*6B
1512198323.49,39847,4.44,72944.0,-13.91,-45.73,-45.87,0,*60
1512198324.73,39848,4.44,72944.3,-13.93,-45.73,-45.87,0,*6D
1512198325.99,39849,4.44,72944.3,-13.91,-45.73,-45.87,0,*6E
1512198327.2,39850,4.44,72948.0,-13.93,-45.87,-45.87,0,*6F
1512198328.42,39851,4.44,72952.5,-13.93,-45.87,-46.01,0,*63
1512198329.66,39852,4.44,72952.3,-13.93,-45.87,-45.73,0,*66
1512198330.92,39853,4.44,72948.8,-13.91,-45.73,-45.87,0,*65
1512198332.16,39854,4.44,72948.0,-13.91,-45.87,-45.87,0,*69
1512198333.42,39855,4.44,72946.5,-13.91,-45.67,-45.73,0,*6D
1512198334.66,39856,4.44,72946.0,-13.93,-45.73,-45.87,0,*62
1512198335.92,39857,4.44,72946.8,-13.91,-45.73,-45.87,0,*61
1512198337.17,39858,4.44,72946.5,-13.91,-45.87,-46.01,0,*68
1512198338.43,39859,4.44,72946.0,-13.93,-45.47,-45.73,0,*61
1512198339.69,39860,4.44,72950.8,-13.91,-45.67,-45.73,0,*6B
1512198340.96,39861,4.44,72950.8,-13.91,-45.67,-45.73,0,*6A
1512198342.18,39862,4.44,72944.5,-13.93,-45.87,-46.01,0,*63
1512198343.45,39863,4.44,72948.3,-13.91,-45.95,-46.15,0,*66
1512198344.7,39864,4.44,72950.8,-13.91,-45.95,-46.01,0,*64
1512198345.94,39865,4.44,72950.5,-13.91,-45.87,-45.87,0,*6B
1512198347.18,39866,4.44,72944.3,-13.91,-45.87,-45.95,0,*6B
1512198348.41,39867,4.44,72944.5,-13.93,-45.73,-45.87,0,*60
1512198349.67,39868,4.44,72946.3,-13.91,-45.73,-45.95,0,*6E
1512198350.94,39869,4.44,72946.0,-13.91,-45.73,-45.87,0,*6C
1512198352.2,39870,4.44,72950.5,-13.91,-45.73,-45.87,0,*64
1512198353.48,39871,4.44,72946.8,-13.91,-45.73,-45.73,0,*6E
1512198354.72,39872,4.44,72946.8,-13.91,-45.67,-45.87,0,*63
1512198356.01,39873,4.44,72950.3,-13.91,-45.73,-45.73,0,*6C
1512198357.25,39874,4.44,72946.5,-13.89,-45.73,-45.95,0,*6A
1512198358.49,39875,4.44,72948.8,-13.91,-45.87,-46.01,0,*67
1512198359.73,39876,4.44,72948.8,-13.91,-45.87,-45.87,0,*69
1512198360.97,39877,4.44,72950.0,-13.91,-45.87,-45.87,0,*68
1512198362.21,39878,4.44,72944.8,-13.91,-45.87,-45.95,0,*64
1512198363.46,39879,4.44,72946.8,-13.91,-45.95,-46.01,0,*68
1512198364.73,39880,4.44,72944.3,-13.91,-45.67,-45.73,0,*65
1512198365.97,39881,4.44,72946.0,-13.91,-45.53,-45.67,0,*66
1512198367.22,39882,4.44,72944.3,-13.91,-45.95,-46.01,0,*6C
1512198368.45,39883,4.44,72950.0,-13.89,-45.95,-46.01,0,*64
1512198369.69,39884,4.44,72948.0,-13.91,-45.87,-45.95,0,*67
1512198370.93,39885,4.44,72948.3,-13.91,-45.87,-45.95,0,*66
1512198372.19,39886,4.44,72944.0,-13.91,-45.73,-45.95,0,*6E
1512198373.45,39887,4.44,72946.3,-13.91,-45.73,-45.87,0,*6C
1512198374.71,39888,4.44,72942.3,-13.91,-45.73,-45.95,0,*60
1512198375.95,39889,4.44,72948.0,-13.91,-45.87,-45.95,0,*6A
1512198377.21,39890,4.44,72946.3,-13.91,-45.67,-45.73,0,*64
1512198378.45,39891,4.44,72944.5,-13.91,-45.87,-45.87,0,*60
1512198379.72,39892,4.44,72946.0,-13.91,-45.73,-45.95,0,*6B
1512198380.95,39893,4.44,72948.0,-13.91,-45.87,-45.95,0,*61
1512198382.22,39894,4.44,72948.0,-13.91,-45.67,-45.73,0,*60
1512198383.47,39895,4.44,72946.8,-13.91,-45.95,-46.01,0,*6A
1512198384.71,39896,4.44,72948.3,-13.91,-45.95,-45.95,0,*67
1512198385.95,39897,4.44,72948.3,-13.91,-45.87,-45.95,0,*65
1512198387.22,39898,4.44,72948.3,-13.91,-46.01,-46.15,0,*6C
1512198388.47,39899,4.44,72950.0,-13.91,-45.95,-45.95,0,*68
1512198389.74,39900,4.44,72950.3,-13.91,-45.53,-45.73,0,*6B
1512198391.01,39901,4.44,72948.0,-13.91,-45.53,-45.73,0,*6A
1512198392.27,39902,4.44,72944.5,-13.91,-45.73,-45.87,0,*60
1512198393.53,39903,4.44,72946.8,-13.91,-45.67,-45.73,0,*6F
1512198394.8,39904,4.44,72942.0,-13.91,-45.53,-45.73,0,*6F
1512198396.09,39905,4.44,72944.5,-13.91,-45.73,-45.73,0,*6C
1512198397.35,39906,4.44,72940.8,-13.91,-45.73,-45.87,0,*64
1512198398.6,39907,4.5,72948.0,-13.91,-46.01,-46.01,0,*6E
1512198399.88,39908,4.5,72950.3,-13.91,-46.01,-46.15,0,*64
1512198401.12,39909,4.44,72944.0,-13.91,-45.87,-45.95,0,*63
1512198402.34,39910,4.44,72944.0,-13.89,-45.87,-45.95,0,*62
1512198403.56,39911,4.44,72946.5,-13.89,-45.87,-46.01,0,*6D
1512198404.78,39912,4.44,72942.8,-13.89,-45.67,-45.95,0,*6E
1512198406.01,39913,4.44,72946.3,-13.89,-45.67,-45.87,0,*6C
1512198407.27,39914,4.44,72942.8,-13.91,-45.53,-45.73,0,*6E
1512198408.54,39915,4.44,72942.5,-13.91,-45.47,-45.67,0,*6F
1512198409.75,39916,4.44,72940.5,-13.89,-45.67,-45.67,0,*67
1512198411.0,39917,4.44,72942.3,-13.89,-45.73,-45.87,0,*6D
1512198412.22,39918,4.44,72944.3,-13.89,-45.87,-45.95,0,*6A
1512198413.43,39919,4.44,72946.5,-13.89,-45.87,-45.95,0,*6B
1512198414.68,39920,4.44,72948.8,-13.89,-45.67,-45.73,0,*67
1512198415.94,39921,4.44,72948.5,-13.87,-45.47,-45.67,0,*6F
1512198417.16,39922,4.44,72950.0,-13.89,-45.53,-45.67,0,*67
1512198418.43,39923,4.44,72948.8,-13.89,-45.47,-45.47,0,*61
1512198419.68,39924,4.44,72948.8,-13.87,-45.21,-45.41,0,*6E
1512198420.95,39925,4.44,72946.0,-13.87,-45.21,-45.27,0,*6F
1512198422.19,39926,4.44,72950.3,-13.87,-45.41,-45.61,0,*68
1512198423.46,39927,4.44,72946.5,-13.87,-45.47,-45.61,0,*6F
1512198424.7,39928,4.44,72946.8,-13.87,-45.41,-45.61,0,*66
1512198425.96,39929,4.44,72950.5,-13.87,-45.41,-45.47,0,*63
1512198427.2,39930,4.44,72950.8,-13.87,-45.41,-45.61,0,*6F
1512198428.47,39931,4.44,72948.3,-13.87,-45.47,-45.61,0,*68
1512198429.73,39932,4.44,72950.0,-13.87,-45.41,-45.47,0,*69
1512198430.97,39933,4.44,72948.0,-13.85,-45.47,-45.67,0,*6E
1512198432.19,39934,4.44,72948.0,-13.85,-45.61,-45.67,0,*6D
1512198433.45,39935,4.44,72950.8,-13.85,-45.81,-45.81,0,*6A
1512198434.69,39936,4.44,72948.0,-13.85,-45.81,-45.67,0,*61
1512198435.93,39937,4.44,72950.0,-13.85,-45.47,-45.67,0,*6A
1512198437.17,39938,4.5,72952.5,-13.85,-45.47,-45.61,0,*63
1512198438.45,39939,4.44,72948.5,-13.85,-45.27,-45.47,0,*60
1512198439.68,39940,4.5,72950.5,-13.85,-45.41,-45.47,0,*6E
1512198440.93,39941,4.44,72950.3,-13.85,-45.67,-45.81,0,*61
1512198442.16,39942,4.44,72948.3,-13.83,-45.33,-45.41,0,*69
1512198443.38,39943,4.5,72948.0,-13.85,-45.41,-45.61,0,*69
1512198444.64,39944,4.44,72944.0,-13.83,-45.41,-45.73,0,*6B
1512198445.89,39945,4.5,72944.3,-13.83,-45.53,-45.61,0,*6A
1512198447.12,39946,4.44,72942.5,-13.85,-45.53,-45.61,0,*6F
1512198448.39,39947,4.5,72944.3,-13.83,-45.61,-45.81,0,*67
1512198449.65,39948,4.44,72944.8,-13.83,-45.81,-45.87,0,*60
1512198450.89,39949,4.5,72944.8,-13.83,-45.61,-45.61,0,*67
1512198452.16,39950,4.44,72944.0,-13.83,-45.61,-45.73,0,*6C
1512198453.4,39951,4.5,72948.0,-13.85,-45.81,-45.87,0,*6E
1512198454.66,39952,4.5,72950.8,-13.83,-45.81,-45.87,0,*6B
1512198455.9,39953,4.5,72948.5,-13.83,-45.41,-45.61,0,*6E
1512198457.17,39954,4.44,72946.0,-13.83,-45.53,-45.73,0,*69
1512198458.41,39955,4.44,72948.8,-13.83,-45.41,-45.61,0,*68
1512198459.65,39956,4.5,72954.3,-13.81,-45.33,-45.47,0,*68
1512198460.87,39957,4.44,72950.0,-13.81,-45.53,-45.53,0,*6A
1512198462.1,39958,4.44,72950.5,-13.81,-45.53,-45.61,0,*64
1512198463.32,39959,4.44,72954.5,-13.81,-45.53,-45.61,0,*65
1512198464.54,39960,4.44,72954.8,-13.81,-45.41,-45.53,0,*6D
1512198465.76,39961,4.44,72948.8,-13.81,-45.41,-45.41,0,*6F
1512198467.03,39962,4.44,72948.3,-13.79,-45.27,-45.33,0,*6E
1512198468.25,39963,4.5,72950.3,-13.81,-45.33,-45.53,0,*6B
1512198469.46,39964,4.44,72940.0,-13.81,-45.33,-45.41,0,*6F
1512198470.68,39965,4.5,72942.0,-13.81,-45.13,-45.41,0,*6C
1512198471.9,39966,4.44,72940.0,-13.81,-45.33,-45.53,0,*6E
1512198473.14,39967,4.44,72940.8,-13.79,-45.53,-45.67,0,*69
1512198474.36,39968,4.44,72940.8,-13.81,-45.61,-45.61,0,*66
1512198475.61,39969,4.44,72940.5,-13.79,-45.53,-45.53,0,*60
1512198476.85,39970,4.44,72946.0,-13.81,-45.61,-45.73,0,*6C
1512198478.12,39971,4.5,72948.5,-13.79,-45.67,-45.81,0,*61
1512198479.36,39972,4.5,72946.8,-13.79,-45.53,-45.67,0,*6D
1512198480.6,39973,4.5,72948.3,-13.79,-45.67,-45.67,0,*6B
1512198481.84,39974,4.5,72948.8,-13.81,-45.61,-45.73,0,*68
1512198483.08,39975,4.5,72952.8,-13.81,-45.81,-45.87,0,*6C
1512198484.32,39976,4.5,72954.3,-13.79,-45.67,-45.67,0,*6E
1512198485.6,39977,4.5,72954.0,-13.79,-45.73,-45.81,0,*62
1512198486.87,39978,4.5,72954.3,-13.79,-45.67,-45.73,0,*65
1512198488.11,39979,4.5,72954.0,-13.79,-45.53,-45.67,0,*66
1512198489.36,39980,4.5,72956.0,-13.79,-45.53,-45.53,0,*67
1512198490.63,39981,4.44,72952.3,-13.79,-45.47,-45.53,0,*63
1512198491.87,39982,4.5,72952.8,-13.79,-45.53,-45.53,0,*65
1512198493.11,39983,4.5,72954.5,-13.79,-45.33,-45.53,0,*62
1512198494.33,39984,4.5,72956.3,-13.77,-45.33,-45.53,0,*6B
1512198495.54,39985,4.5,72958.0,-13.77,-45.33,-45.53,0,*6A
1512198496.78,39986,4.5,72956.0,-13.75,-45.21,-45.41,0,*6B